Lid_Strength_Index
9 9 9 8 7 6 5 3 3 1 1 1 1 1 1 1 1 1 1 1 2 2 2 2 2 2 2 2 1 2 2 3 4 3 3 6 9 10 11 11 11 11 10
10 10 9 8 8 7 7 4 3 3 2 1 1 1 2 2 1 1 2 2 2 2 2 2 2 2 2 2 2 2 2 2 4 5 4 11 10 11 12 12 12 12 11
11 10 10 9 8 8 7 6 5 4 2 2 2 2 2 2 1 1 1 2 2 2 2 2 2 2 2 2 2 3 2 3 3 3 4 13 14 13 15 14 14 13 12
12 11 11 10 10 10 9 8 7 6 4 2 3 3 2 2 2 2 2 2 2 2 2 2 2 2 2 2 3 3 3 3 3 5 9 13 14 15 15 15 15 14 14
13 12 12 10 11 11 11 10 10 9 7 6 4 4 4 4 3 6 3 2 2 2 3 2 2 4 8 5 3 3 3 4 6 10 13 14 15 16 16 14 14 14 14
14 13 13 12 12 12 11 11 11 10 9 8 8 7 7 5 7 8 9 7 6 5 4 4 4 11 9 10 9 8 5 5 10 10 13 13 14 14 14 14 14 15 14
15 14 15 14 15 14 13 12 11 10 9 9 9 8 8 8 8 8 9 8 7 5 6 7 9 11 11 10 11 11 11 10 9 9 12 12 13 13 13 14 14 14 14
17 16 17 17 17 16 15 13 12 11 10 9 9 8 9 9 8 8 9 9 8 8 8 8 9 10 11 11 12 13 13 13 12 12 12 12 12 12 12 13 13 14 15
18 19 19 18 18 18 17 15 13 11 11 10 9 10 10 10 9 9 9 11 11 11 11 11 10 11 10 10 12 13 14 14 11 10 10 10 10 11 12 13 14 14 16
19 19 19 19 18 18 17 16 13 11 11 11 10 10 11 12 10 9 10 12 12 13 13 12 13 11 10 10 12 13 13 13 13 13 13 12 12 12 11 13 13 13 15
20 20 20 19 19 19 18 15 14 12 11 11 11 11 11 12 11 10 9 11 12 12 13 13 13 10 10 10 11 13 12 13 12 13 14 14 14 14 14 13 13 13 14
21 21 21 21 20 18 18 16 14 12 11 11 11 11 11 12 12 11 10 9 10 12 13 13 13 10 10 10 11 11 11 13 13 14 14 14 15 15 14 14 14 14 14
22 22 22 21 20 19 18 16 13 11 11 11 11 11 11 12 12 11 10 9 9 11 12 12 11 10 10 11 11 11 13 13 14 14 15 15 15 15 15 15 14 14 14
23 22 21 20 19 18 16 14 13 12 11 11 11 11 11 12 12 12 13 12 12 12 11 11 11 12 12 12 13 13 13 13 14 15 16 16 15 15 15 15 16 15 16
22 21 20 19 19 18 16 14 12 12 12 12 11 11 11 12 11 11 12 12 13 13 13 13 14 14 14 15 15 15 15 15 15 16 16 16 16 16 16 15 16 16 16
22 20 20 19 18 17 16 12 11 11 12 12 12 10 11 10 10 11 11 11 11 12 14 15 15 15 16 16 16 16 16 16 16 15 16 16 17 17 17 16 16 17 17
22 20 20 19 19 18 17 17 18 16 14 13 13 13 12 10 10 10 12 13 12 14 16 17 18 18 18 18 17 18 18 18 16 16 16 16 16 16 17 17 17 17 17
21 20 21 20 20 20 20 19 20 20 20 18 16 16 14 14 14 14 14 16 19 19 21 21 21 21 21 20 19 18 18 18 18 17 17 17 17 17 17 17 17 18 18
21 21 21 21 21 21 21 21 21 21 22 21 19 18 19 16 16 17 18 22 22 23 23 24 23 23 23 22 22 21 21 20 20 20 20 19 19 18 18 18 18 18 18
22 21 21 21 21 22 22 22 23 23 23 23 22 21 22 22 23 24 23 23 24 24 24 24 24 24 24 24 24 23 23 23 23 22 22 21 21 21 21 21 20 20 20
21 21 21 22 22 21 22 23 23 24 24 24 24 21 19 24 24 25 25 25 25 25 25 25 25 25 25 25 25 25 25 24 24 24 23 23 23 23 22 22 22 22 22
21 21 21 22 22 22 22 22 23 23 24 24 24 23 20 24 25 25 26 25 26 26 26 26 26 26 26 26 26 26 26 26 25 25 25 25 24 24 24 24 23 23 23
22 22 22 22 22 22 23 23 23 23 24 24 24 24 24 25 25 25 25 25 25 26 26 26 26 27 26 26 26 26 27 27 27 26 26 26 26 25 25 26 25 25 24
24 24 24 24 24 24 24 24 24 24 24 24 24 24 25 25 25 25 25 25 25 26 25 25 26 26 27 27 27 26 26 26 25 26 26 27 26 26 26 26 26 26 25
26 25 25 25 25 25 25 25 25 26 26 25 26 25 25 25 25 25 25 25 26 26 26 26 26 27 27 28 27 27 26 26 25 25 25 25 26 26 26 27 27 26 26
28 28 28 26 26 26 26 27 27 27 27 27 27 27 27 27 26 26 26 27 27 27 27 27 27 28 28 27 27 26 26 24 24 23 23 25 26 27 27 27 27 27 27